Tracking 35334 objects as of 12-Sep-2026
HD Live streaming from Space Station
objects crossing your sky now

DMSP 5D-2 F11 DEB

Track DMSP 5D-2 F11 DEB now!
10-day predictions


NORAD ID: 28317
Int'l Code: 1991-082AE
Launch date: November 28, 1991
Source: United States (US)
Launch site: AIR FORCE WESTERN TEST RANGE (AFWTR)

Note: This is SATELLITE DEBRIS
Your satellite tracking list
Your tracking list is empty




NASA's NSSDC Master Catalog

Two Line Element Set (TLE):
1 28317U 91082AE  26255.03655701  .00000621  00000-0  28859-3 0  9992
2 28317  98.8589 274.5114 0118697  41.6495 345.4670 14.20533423155541
Source of the keplerian elements: AFSPC